Location: Bonny Doon Airfield
(37.0704°N, 122.1252°W)
Time: 22:36:17
(UTC-08:00)

Tiangong 2 - Pass Details

Date: 15 October 2017
Orbit: 386 x 390 km, 42.8° (Epoch: 14 December)

Event Time Altitude Azimuth Distance (km) Brightness Sun altitude
Exits shadow 05:39:56 28° 1° (N) 777 2.6 -20.0°
Maximum altitude 05:39:57 28° 1° (N) 777 2.6 -20.0°
Drops below altitude 10° 05:42:46 10° 63° (ENE) 1,423 4.9 -19.5°
Sets 05:45:02 0° 76° (ENE) 2,279 6.5 -19.0°
